Home   Weather   Ravensburg   Past weeks

Flag for Germany Past Weather in Ravensburg, Baden-Württemberg, Germany — Yesterday and Last 2 Weeks

Now
64 °F

Rain. Overcast.


Feels Like: 64 °F
Forecast: 61 / 74 °F
Wind: 7 mph from Southwest

Location: Friedrichshafen Airport

Current Time: Jun 27, 2017 at 2:14:59 am

Latest Report: Jun 27, 2017 at 1:35 am


Visibility: 6 mi

Pressure: 29.95 "Hg

Humidity: 94%

Dew Point: 63 °F

Location of RavensburgLocation

Past Weather in Ravensburg — Graph

°F

Ravensburg Temperature Yesterday

Maximum temperature yesterday: 88 °F (at 5:50 pm)
Minimum temperature yesterday: 59 °F (at 5:20 am)
Average temperature yesterday: 73 °F

High & Low Weather Summary for the Past Weeks

 TemperatureHumidityPressure
High91 °F (Jun 22, 4:20 pm)100% (Jun 16, 12:20 am)30.30 "Hg (Jun 16, 12:20 am)
Low54 °F (Jun 17, 5:50 am)24% (Jun 26, 2:50 pm)29.80 "Hg (Jun 26, 5:50 pm)
Average72 °F65%30.07 "Hg
* Reported Jun 12 12:20 am — Jun 27 12:50 am, Ravensburg. Weather by CustomWeather, © 2017

Note: Actual official high and low records may vary slightly from our data, if they occured in-between our weather recording intervals... More about our weather records

Advertising

Ravensburg Weather History for the Previous 24 Hours

Scroll right to see more
 ConditionsComfort  
Time TempWeatherWind HumidityBarometerVisibility
12:50 am
Tue, Jun 27
66 °FRain. Mostly cloudy.5 mph83%29.95 "HgN/A
12:29 am66 °FRain. Overcast.7 mph83%29.95 "HgN/A
12:05 am68 °FLight rain. Overcast.5 mph78%29.95 "HgN/A
11:50 pm
Mon, Jun 26
68 °FSprinkles. Mostly cloudy.5 mph78%29.92 "HgN/A
11:25 pm70 °FSprinkles. Mostly cloudy.3 mph73%29.92 "HgN/A
11:04 pm72 °FSprinkles. Mostly cloudy.5 mph65%29.89 "HgN/A
10:57 pm73 °FSprinkles. Mostly cloudy.6 mph61%29.89 "HgN/A
10:35 pm75 °FPassing clouds.12 mph54%29.89 "HgN/A
9:50 pm77 °FClear.3 mph51%29.83 "Hg10 mi
9:20 pm75 °FSunny.1 mph57%29.83 "Hg10 mi
8:50 pm79 °FSunny.2 mph48%29.83 "Hg10 mi
8:20 pm79 °FSunny.1 mph48%29.80 "Hg10 mi
7:50 pm81 °FSunny.1 mph45%29.80 "Hg10 mi
7:20 pm82 °FSunny.3 mph37%29.80 "Hg10 mi
6:50 pm88 °FSunny.3 mph29%29.83 "Hg10 mi
6:20 pm88 °FSunny.2 mph31%29.80 "Hg10 mi
5:50 pm88 °FSunny.6 mph29%29.80 "Hg10 mi
5:20 pm86 °FSunny.5 mph33%29.83 "Hg10 mi
4:50 pm86 °FSunny.6 mph35%29.83 "Hg10 mi
4:20 pm86 °FSunny.7 mph33%29.86 "Hg10 mi
3:50 pm86 °FPassing clouds.6 mph33%29.86 "HgN/A
3:20 pm86 °FSunny.3 mph31%29.89 "Hg10 mi
2:50 pm86 °FSunny.3 mph24%29.89 "Hg10 mi
2:20 pm84 °FSunny.3 mph31%29.89 "Hg10 mi
1:50 pm82 °FPassing clouds.6 mph40%29.92 "HgN/A
1:20 pm81 °FSunny.5 mph45%29.92 "Hg10 mi
12:50 pm81 °FSunny.3 mph45%29.92 "Hg10 mi
12:20 pm79 °FSunny.3 mph45%29.95 "Hg10 mi
11:50 am77 °FPassing clouds.6 mph51%29.95 "HgN/A
11:20 am77 °FSunny.3 mph54%29.95 "Hg10 mi
10:50 am75 °FSunny.1 mph54%29.98 "Hg10 mi
10:20 am75 °FSunny.2 mph50%29.98 "Hg10 mi
9:50 am75 °FSunny.2 mph50%29.98 "Hg10 mi
9:20 am72 °FSunny.2 mph61%29.98 "Hg10 mi
8:50 am72 °FSunny.2 mph61%29.98 "Hg10 mi
8:20 am70 °FSunny.1 mph73%30.01 "Hg10 mi
7:50 am68 °FSunny.2 mph73%30.01 "Hg10 mi
7:20 am66 °FSunny.No wind78%30.01 "Hg10 mi
6:50 am61 °FSunny.1 mph88%30.01 "Hg10 mi
6:20 am59 °FSunny.No wind94%30.01 "Hg10 mi
5:50 am59 °FSunny.1 mph94%30.01 "Hg10 mi
5:20 am59 °FPassing clouds.2 mph94%30.01 "HgN/A
4:50 am61 °FPassing clouds.2 mph88%30.01 "HgN/A
4:20 am61 °FPassing clouds.No wind88%30.01 "HgN/A
3:50 am63 °FPassing clouds.2 mph83%30.01 "HgN/A
3:20 am63 °FPassing clouds.No wind83%30.04 "HgN/A
2:50 am63 °FPassing clouds.No wind83%30.04 "HgN/A
2:20 am64 °FPassing clouds.2 mph78%30.04 "HgN/A
Weather by CustomWeather, © 2017

See weather overviewHow to use our weather pages